GPS BIIRM-2 (PRN 31)

Last updated on Fri Apr 12 2024 01:03:03 GMT+0100 (British Summer Time)

1 29486U 06042A 24102.27748358 .00000019 00000+0 00000+0 0 9992 2 29486 54.6760 182.9377 0103578 37.2947 334.0477 2.00559603128416
UTC large
Height (km)
Speed (km/s)
/
Latitude / Longitude
Inclination (degrees)
Orbital Period (minutes)
Azimuth
Elevation
Range (km)
Doppler Factor

Next 0 passes for location: London (51.5072 / 0.1276)

Sorry there are no passes over London.